Regional Weather Roundup
Issued by NWS

Home | Current Version | Previous Version | Text Only | Print | Product List | Glossary On
Versions: 1 2 3 4 5 6 7 8 9 10 11 12 13 14 15 16 17 18 19 20 21 22 23 24 25 26 27 28 29 30 31 32 33 34 35 36 37 38 39 40 41 42 43 44 45 46 47 48 49 50
000
ASUS44 KFWD 172215
RWRTX
NORTH TEXAS HOURLY WEATHER ROUNDUP
NATIONAL WEATHER SERVICE FORT WORTH TX
500 PM CDT TUE OCT 17 2017

NOTE: "FAIR" INDICATES FEW OR NO CLOUDS BELOW 12,000 FEET WITH NO
SIGNIFICANT WEATHER AND/OR OBSTRUCTIONS TO VISIBILITY.

TXZ118-119-172300-
DALLAS/FORT WORTH METROPLEX

CITY           SKY/WX    TMP DP  RH WIND       PRES   REMARKS
DFW AIRPORT    SUNNY     76  40  27 SE7       30.15F
DALLAS LOVE    SUNNY     75  38  26 VRB5      30.16F
FTW MEACHAM    SUNNY     76  43  30 S3        30.15F
DAL-EXECUTIVE  SUNNY     75  40  28 E3        30.16F
FTW-ALLIANCE   SUNNY     76  40  27 S6        30.15F
FTW-NAS-JRB    SUNNY     76  42  29 S6        30.16F
FTW-SPINKS     SUNNY     77  39  25 SE6       30.17F
ARLINGTON      SUNNY     75  41  29 E6        30.16F
GRAND PRAIRIE  SUNNY     75  37  25 E12       30.17F
ADDISON        SUNNY     73  37  27 S3        30.17F
MESQUITE       SUNNY     75  37  25 E5        30.17F
LANCASTER      SUNNY     75  39  27 S3        30.17F
$$

TXZ091>094-102>105-117-120-121-131>134-172300-
NORTH CENTRAL TEXAS

CITY           SKY/WX    TMP DP  RH WIND       PRES   REMARKS
SHRMAN/DENISON SUNNY     74  42  31 SE7       30.17F
GAINESVILLE    SUNNY     72  40  31 SE10      30.18F
BOWIE          SUNNY     74  42  32 SE6       30.15F
BRIDGEPORT     SUNNY     76  42  29 S5        30.16F
DECATUR        SUNNY     74  40  29 SE6       30.14F
DENTON         SUNNY     74  42  31 SE8       30.15F
MCKINNEY       SUNNY     74  40  29 S3        30.16F
BONHAM         SUNNY     73  37  27 SE6       30.17F
GREENVILLE     SUNNY     77  39  25 SE3       30.17F
ROCKWALL       SUNNY     75  40  28 CALM      30.17F
TERRELL        SUNNY     76  35  22 CALM      30.16F
WAXAHACHIE     SUNNY     76  42  29 CALM      30.18S
CLEBURNE       SUNNY     75  41  29 SE6       30.18F
GRANBURY       SUNNY     77  42  28 SE5       30.16F
$$

TXZ083>090-098>101-113>116-127>130-139>142-154-155-172300-
WESTERN NORTH TEXAS

CITY           SKY/WX    TMP DP  RH WIND       PRES   REMARKS
WICHITA FALLS  SUNNY     76  42  29 S12       30.11F
WF-KICKAPOO    SUNNY     78  41  27 SE14      30.14F
VERNON         SUNNY     81  26  13 S12       30.11S
ABILENE        SUNNY     78  35  21 SW13      30.14F
ABILENE-DYESS  SUNNY     79  40  24 S12       30.13F
GRAHAM         SUNNY     79  41  25 S6        30.12F
BRECKENRIDGE   SUNNY     82  32  16 SE10      30.12F HAZE
CISCO          SUNNY     79  32  18 S8G15     30.16F
EASTLAND       SUNNY     78  40  25 SE10      30.14F HAZE
RANGER         SUNNY     76  42  29 S7        30.15F
MINERAL WELLS  SUNNY     77  41  27 SE13      30.13F
STEPHENVILLE   SUNNY     77  41  27 SE7       30.19F
COMANCHE       SUNNY     79  41  25 S7        30.16F
BROWNWOOD      SUNNY     81  36  19 S9        30.15F
COLEMAN        SUNNY     80  32  17 S10       30.15F
$$

TXZ143>147-156>162-174-175-172300-
CENTRAL TEXAS

CITY           SKY/WX    TMP DP  RH WIND       PRES   REMARKS
WACO           SUNNY     76  40  27 S6        30.16F
WACO-TSTC      SUNNY     79  37  22 VRB3      30.16F
WACO-MCGREGOR  SUNNY     76  41  28 E5        30.16F
HILLSBORO      SUNNY     77  42  28 CALM      30.17S
CORSICANA      SUNNY     75  39  27 E3        30.18
MEXIA          SUNNY     76  35  22 CALM      30.16F
HEARNE         SUNNY     77  41  27 CALM      30.17F
CAMERON        SUNNY     78  42  27 S3        30.16F
TEMPLE         SUNNY     77  40  26 S3        30.17F
KILLEEN        SUNNY     76  40  27 SE6       30.15F
KILLEEN-SKYLRK SUNNY     76  43  30 VRB3      30.17F
FORT HOOD      SUNNY     76  41  28 S6        30.13F
GATESVILLE     SUNNY     77  45  31 SE3       30.18F HAZE
HAMILTON       SUNNY     77  42  28 S6        30.18F
LAMPASAS       SUNNY     78  42  27 SE3       30.15F
$$

TXZ095>097-106>112-122>126-135>138-148>153-164>167-172300-
EAST TEXAS

CITY           SKY/WX    TMP DP  RH WIND       PRES   REMARKS
PARIS          SUNNY     72  41  32 CALM      30.19S
SULPHUR SPRNGS SUNNY     75  39  27 E5        30.19F
MOUNT PLEASANT SUNNY     74  40  29 CALM      30.19F
GILMER         SUNNY     74  40  29 E6        30.17F
MINEOLA        SUNNY     75  39  27 CALM      30.17F
TYLER          SUNNY     76  34  21 CALM      30.17F
LONGVIEW       SUNNY     77  40  26 VRB3      30.16F
MARSHALL       SUNNY     75  37  24 CALM      30.19F
ATHENS         SUNNY     73  37  27 SE3       30.16F
PALESTINE      SUNNY     76  40  27 CALM      30.18S
JACKSONVILLE   SUNNY     75  36  23 CALM      30.18F
HENDERSON      SUNNY     76  37  24 NE5       30.18S
CENTER         CLEAR     77  45  31 NE3       30.18S
NACOGDOCHES    SUNNY     76  43  30 NE7       30.17F
LUFKIN         SUNNY     75  45  34 NE6       30.16F
$$

SUPPLEMENTAL OBSERVATIONS (NWS FORT WORTH AREA)

CITY           SKY/WX    TMP DP  RH WIND       PRES   REMARKS
DENISON DAM      N/A     73  37  27 SE7         N/A
CADDO GRASSLND   N/A     73  37  27 S5          N/A
PAT MAYSE LAKE   N/A     72  36  26 SE5         N/A
CEDAR HILL       N/A     77  39  25 SE3         N/A
LBJ GRASSLAND    N/A     75  41  29 SE8         N/A
POSSUM KINGDOM   N/A     79  37  22 S10G18      N/A
GRANBURY         N/A     79  43  27 SE7         N/A
COMANCHE         N/A     81  39  22 S7          N/A
MCGREGOR         N/A     79  39  24 SE3         N/A
TEMPLE           N/A     79  37  22 S2          N/A
LAKE LIMESTONE   N/A     77  36  22 NE6         N/A
ATHENS           N/A     75  39  27 SE7         N/A
$$

SUPPLEMENTAL OBSERVATIONS (NWS NORMAN AREA)

CITY           SKY/WX    TMP DP  RH WIND       PRES   REMARKS
GOODLETT         N/A     82  33  17 S16G22    30.07F
ODELL            N/A     79  37  21 S15       30.11F
CROWELL          N/A     81  38  21 S14       30.10F
KNOX CITY        N/A     82  30  15 S15       30.11S
SEYMOUR          N/A     80  37  21 S12       30.11F
MILLERS CREEK    N/A     81  41  24 S10         N/A
$$

SUPPLEMENTAL OBSERVATIONS (NWS SAN ANGELO AREA)

CITY           SKY/WX    TMP DP  RH WIND       PRES   REMARKS
WEINERT          N/A     81  36  19 S14       30.12F
HASKELL          N/A     80  29  16 S12       30.12S
THROCKMORTON     N/A     80  39  22 S10       30.13F
STAMFORD         N/A     80  38  22 S12       30.13F
CLYDE            N/A     79  36  21 S9        30.16F
HAMBY            N/A     81  32  17 S12         N/A
IVIE RESERVOIR   N/A     82  30  15 SE9         N/A
COLORADO BEND    N/A     79  37  22 SE6         N/A
$$

SUPPLEMENTAL OBSERVATIONS (NWS SHREVEPORT AREA)

CITY           SKY/WX    TMP DP  RH WIND       PRES   REMARKS
CLARKSVILLE      N/A     73  36  25 SE5         N/A
TEXARKANA        N/A     75  39  27 NE3         N/A
LINDEN           N/A     77  37  24 E3          N/A
CADDO LAKE       N/A     77  37  24 N3          N/A
GILMER           N/A     75  39  27 E1          N/A
HENDERSON        N/A     79  37  22 NE5         N/A
LUFKIN           N/A     75  43  31 MISG        N/A
N SABINE NF      N/A     72  46  40 MISG        N/A
S SABINE NF      N/A     73  48  40 N3          N/A
$$

SUPPLEMENTAL OBSERVATIONS ARE A COLLECTION OF AUTOMATED INSTRUMENTS
THAT ARE MAINTAINED BY A VARIETY OF FEDERAL AND STATE AGENCIES.
CERTAIN ELEMENTS...SUCH AS HUMIDITY VALUES AND SUSTAINED WIND
SPEEDS...MAY BE APPROXIMATED.





USA.gov is the U.S. government's official web portal to all federal, state and local government web resources and services.